CW5619 Weather Reports


Display with metric or nautical units.
time (UTC)temp
F
wind
direction
speed
MPH
gust
MPH
rain 1hr
in
rain 24hr
in
rain mn
in
humidity
%
barometer
mb
20220629220904 94 231 2.0 7.0 0.00 0.00 0.00 33 1015.5
20220629220404 94 209 3.0 7.0 0.00 0.00 0.00 31 1015.3
20220629215903 94 288 2.0 6.0 0.00 0.00 0.00 32 1015.6
20220629215404 95 284 3.0 6.0 0.00 0.00 0.00 32 1015.6
20220629214903 95 248 3.0 8.0 0.00 0.00 0.00 32 1015.7
20220629214403 95 260 2.0 8.0 0.00 0.00 0.00 31 1015.7
20220629213903 95 275 3.0 8.0 0.00 0.00 0.00 32 1015.8
20220629213403 95 257 4.0 9.0 0.00 0.00 0.00 30 1015.9
20220629212904 95 237 4.0 9.0 0.00 0.00 0.00 32 1016.1
20220629212403 94 264 5.0 8.0 0.00 0.00 0.00 32 1016.1
20220629211904 94 247 4.0 8.0 0.00 0.00 0.00 32 1016.3
20220629211403 95 230 2.0 7.0 0.00 0.00 0.00 32 1016.4
20220629210903 95 217 3.0 9.0 0.00 0.00 0.00 32 1016.4
20220629210404 95 229 3.0 9.0 0.00 0.00 0.00 32 1016.6
20220629205903 95 226 3.0 8.0 0.00 0.00 0.00 32 1016.6
20220629205404 95 241 3.0 8.0 0.00 0.00 0.00 32 1016.7
20220629204904 95 201 3.0 9.0 0.00 0.00 0.00 32 1016.7
20220629204403 95 215 4.0 13.0 0.00 0.00 0.00 32 1016.8
20220629203903 95 277 3.0 13.0 0.00 0.00 0.00 32 1016.6
20220629203403 95 260 5.0 13.0 0.00 0.00 0.00 32 1016.7
20220629202904 95 257 4.0 12.0 0.00 0.00 0.00 32 1016.5
20220629202403 95 253 5.0 12.0 0.00 0.00 0.00 31 1016.4
20220629201903 95 235 4.0 12.0 0.00 0.00 0.00 31 1016.3
20220629201403 95 238 5.0 12.0 0.00 0.00 0.00 30 1016.1
20220629200903 95 216 5.0 12.0 0.00 0.00 0.00 30 1016.1
20220629200403 95 220 5.0 12.0 0.00 0.00 0.00 30 1016.2
20220629195903 96 220 6.0 16.0 0.00 0.00 0.00 29 1016.3
20220629195403 96 239 7.0 16.0 0.00 0.00 0.00 29 1016.2
20220629194903 97 219 7.0 15.0 0.00 0.00 0.00 28 1016.2
20220629194403 98 194 6.0 17.0 0.00 0.00 0.00 28 1016.2
20220629193903 100 225 7.0 17.0 0.00 0.00 0.00 27 1016.2
20220629193403 101 177 6.0 15.0 0.00 0.00 0.00 24 1016.2
20220629192904 102 221 3.0 9.0 0.00 0.00 0.00 23 1016.2
20220629192403 102 208 3.0 6.0 0.00 0.00 0.00 23 1016.2
20220629191903 102 281 1.0 7.0 0.00 0.00 0.00 22 1016.3
20220629191404 102 150 3.0 7.0 0.00 0.00 0.00 22 1016.3
20220629190903 102 163 3.0 7.0 0.00 0.00 0.00 23 1016.3
20220629190403 102 152 3.0 8.0 0.00 0.00 0.00 23 1016.3
20220629185903 102 170 2.0 8.0 0.00 0.00 0.00 23 1016.2
20220629185403 101 217 3.0 8.0 0.00 0.00 0.00 23 1016.2
20220629184903 101 240 3.0 8.0 0.00 0.00 0.00 24 1016.3
20220629184403 101 240 3.0 7.0 0.00 0.00 0.00 23 1016.3
20220629183904 100 10 1.0 6.0 0.00 0.00 0.00 24 1016.3
20220629183403 100 57 2.0 6.0 0.00 0.00 0.00 24 1016.5
20220629182903 100 202 2.0 12.0 0.00 0.00 0.00 24 1016.5
20220629182403 100 208 3.0 12.0 0.00 0.00 0.00 24 1016.7
20220629181903 100 175 2.0 8.0 0.00 0.00 0.00 24 1016.7
20220629181404 100 203 0.0 5.0 0.00 0.00 0.00 24 1016.7
20220629180903 100 242 2.0 6.0 0.00 0.00 0.00 24 1016.9
20220629180404 100 161 2.0 6.0 0.00 0.00 0.00 24 1017.0
20220629175903 100 89 2.0 6.0 0.00 0.00 0.00 25 1017.0
20220629175403 99 176 3.0 6.0 0.00 0.00 0.00 25 1017.1
20220629174903 99 148 1.0 6.0 0.00 0.00 0.00 25 1017.2
20220629174403 99 82 2.0 7.0 0.00 0.00 0.00 25 1017.2
20220629173903 99 92 3.0 7.0 0.00 0.00 0.00 25 1017.3
20220629173403 98 177 1.0 7.0 0.00 0.00 0.00 26 1017.4
20220629172903 98 123 2.0 7.0 0.00 0.00 0.00 27 1017.4
20220629172403 98 128 2.0 5.0 0.00 0.00 0.00 27 1017.5
20220629171903 97 66 1.0 6.0 0.00 0.00 0.00 27 1017.5
20220629171403 97 177 2.0 6.0 0.00 0.00 0.00 28 1017.5
20220629170904 97 171 2.0 5.0 0.00 0.00 0.00 27 1017.5
20220629170403 98 95 2.0 8.0 0.00 0.00 0.00 28 1017.5
20220629165904 97 112 2.0 8.0 0.00 0.00 0.00 28 1017.5
20220629165403 97 100 1.0 8.0 0.00 0.00 0.00 28 1017.6
20220629164903 97 112 1.0 7.0 0.00 0.00 0.00 28 1017.6
20220629164404 97 154 3.0 7.0 0.00 0.00 0.00 28 1017.7
20220629163903 96 102 2.0 8.0 0.00 0.00 0.00 28 1017.7
20220629163403 96 106 3.0 8.0 0.00 0.00 0.00 28 1017.7
20220629162904 96 100 3.0 7.0 0.00 0.00 0.00 29 1017.7
20220629162403 95 111 2.0 9.0 0.00 0.00 0.00 30 1017.8
20220629161903 95 141 2.0 9.0 0.00 0.00 0.00 29 1017.8
20220629161403 95 131 2.0 8.0 0.00 0.00 0.00 30 1017.8
20220629160903 94 107 2.0 9.0 0.00 0.00 0.00 31 1018.0
20220629160405 94 70 2.0 9.0 0.00 0.00 0.00 31 1018.0
20220629155903 93 189 1.0 5.0 0.00 0.00 0.00 32 1017.9
20220629155404 93 140 2.0 5.0 0.00 0.00 0.00 34 1017.9
20220629154904 92 199 2.0 5.0 0.00 0.00 0.00 34 1018.0
20220629154403 92 127 1.0 6.0 0.00 0.00 0.00 35 1018.0
20220629153903 91 201 3.0 6.0 0.00 0.00 0.00 35 1018.0
20220629153404 91 147 1.0 5.0 0.00 0.00 0.00 36 1018.0
20220629152903 90 202 1.0 6.0 0.00 0.00 0.00 36 1018.0
20220629152404 89 180 3.0 6.0 0.00 0.00 0.00 37 1018.0
20220629151904 89 207 1.0 6.0 0.00 0.00 0.00 38 1018.0
20220629151403 88 76 1.0 6.0 0.00 0.00 0.00 38 1018.0
20220629150904 88 120 1.0 6.0 0.00 0.00 0.00 38 1018.0
20220629150404 88 130 0.0 6.0 0.00 0.00 0.00 39 1018.0
20220629145903 88 155 1.0 8.0 0.00 0.00 0.00 38 1017.9
20220629145403 88 150 2.0 8.0 0.00 0.00 0.00 38 1017.8
20220629144904 89 113 2.0 8.0 0.00 0.00 0.00 38 1017.8
20220629144403 89 125 2.0 8.0 0.00 0.00 0.00 37 1017.7
20220629143903 89 99 2.0 8.0 0.00 0.00 0.00 37 1017.7
20220629143404 89 144 2.0 8.0 0.00 0.00 0.00 38 1017.6
20220629142903 89 113 3.0 7.0 0.00 0.00 0.00 38 1017.5
20220629142404 88 91 3.0 7.0 0.00 0.00 0.00 39 1017.5
20220629141904 87 68 1.0 7.0 0.00 0.00 0.00 40 1017.5
20220629141404 87 117 2.0 6.0 0.00 0.00 0.00 40 1017.4
20220629140903 87 150 1.0 6.0 0.00 0.00 0.00 41 1017.4
20220629140403 86 152 2.0 6.0 0.00 0.00 0.00 42 1017.3
20220629135904 86 75 2.0 5.0 0.00 0.00 0.00 43 1017.4
20220629135404 85 125 1.0 3.0 0.00 0.00 0.00 43 1017.3
20220629134904 85 120 1.0 6.0 0.00 0.00 0.00 44 1017.2
20220629134403 84 88 1.0 6.0 0.00 0.00 0.00 44 1017.3
20220629133904 84 86 2.0 6.0 0.00 0.00 0.00 45 1017.2
20220629133404 83 117 2.0 6.0 0.00 0.00 0.00 45 1017.2
20220629132903 83 100 1.0 6.0 0.00 0.00 0.00 46 1017.2
20220629132403 82 111 1.0 3.0 0.00 0.00 0.00 47 1017.2
20220629131903 82 126 1.0 3.0 0.00 0.00 0.00 47 1017.1
20220629131403 82 150 1.0 3.0 0.00 0.00 0.00 47 1017.1
20220629130903 82 101 2.0 3.0 0.00 0.00 0.00 48 1017.1
20220629130405 82 98 1.0 5.0 0.00 0.00 0.00 48 1017.1
20220629125903 82 96 1.0 5.0 0.00 0.00 0.00 48 1017.0
20220629125403 82 99 0.0 1.0 0.00 0.00 0.00 48 1017.0
20220629124904 82 99 0.0 1.0 0.00 0.00 0.00 47 1017.0
20220629124403 82 99 0.0 1.0 0.00 0.00 0.00 47 1017.0
20220629123903 82 99 0.0 1.0 0.00 0.00 0.00 47 1016.9
20220629123405 82 99 0.0 1.0 0.00 0.00 0.00 47 1016.9
20220629122903 82 99 0.0 1.0 0.00 0.00 0.00 46 1016.7
20220629122403 82 99 0.0 3.0 0.00 0.00 0.00 46 1016.7
20220629121904 83 99 0.0 3.0 0.00 0.00 0.00 46 1016.7
20220629121403 83 101 1.0 3.0 0.00 0.00 0.00 46 1016.5
20220629120903 83 107 0.0 3.0 0.00 0.00 0.00 46 1016.5
20220629120405 83 111 0.0 3.0 0.00 0.00 0.00 45 1016.4
20220629115903 83 145 0.0 3.0 0.00 0.00 0.00 45 1016.4
20220629115404 83 145 1.0 3.0 0.00 0.00 0.00 45 1016.4
20220629114904 83 148 1.0 3.0 0.00 0.00 0.00 45 1016.4
20220629114403 83 155 1.0 3.0 0.00 0.00 0.00 45 1016.3
20220629113904 83 157 1.0 3.0 0.00 0.00 0.00 45 1016.3
20220629113403 83 111 1.0 3.0 0.00 0.00 0.00 45 1016.2
20220629112903 83 136 0.0 3.0 0.00 0.00 0.00 45 1016.2
20220629112403 83 137 1.0 3.0 0.00 0.00 0.00 45 1016.2
20220629111903 83 136 1.0 3.0 0.00 0.00 0.00 44 1016.1
20220629111403 84 126 0.0 2.0 0.00 0.00 0.00 44 1016.1
20220629110903 84 126 0.0 2.0 0.00 0.00 0.00 44 1016.1
20220629110403 84 126 0.0 1.0 0.00 0.00 0.00 44 1016.2
20220629105904 84 126 0.0 1.0 0.00 0.00 0.00 43 1016.1
20220629105404 84 126 0.0 3.0 0.00 0.00 0.00 43 1016.1
20220629104903 84 127 1.0 3.0 0.00 0.00 0.00 43 1016.2
20220629104404 84 121 0.0 3.0 0.00 0.00 0.00 43 1016.2
20220629103904 84 122 0.0 3.0 0.00 0.00 0.00 43 1016.1
20220629103404 85 123 1.0 3.0 0.00 0.00 0.00 43 1016.2
20220629102903 85 128 1.0 3.0 0.00 0.00 0.00 43 1016.1
20220629102404 85 134 0.0 3.0 0.00 0.00 0.00 42 1016.1
20220629101903 85 139 0.0 3.0 0.00 0.00 0.00 42 1016.1
20220629101404 85 116 1.0 3.0 0.00 0.00 0.00 42 1016.1
20220629100903 85 113 1.0 3.0 0.00 0.00 0.00 42 1016.1
20220629100403 85 108 0.0 3.0 0.00 0.00 0.00 41 1016.1
20220629095904 86 109 0.0 3.0 0.00 0.00 0.00 41 1015.9
20220629095403 86 109 0.0 2.0 0.00 0.00 0.00 41 1016.0
20220629094903 86 109 0.0 2.0 0.00 0.00 0.00 41 1016.1
20220629094404 86 107 0.0 2.0 0.00 0.00 0.00 40 1016.1
20220629093904 86 107 0.0 3.0 0.00 0.00 0.00 40 1016.0
20220629093403 86 107 0.0 3.0 0.00 0.00 0.00 40 1015.9
20220629092903 87 130 0.0 3.0 0.00 0.00 0.00 40 1015.9
20220629092404 87 128 1.0 2.0 0.00 0.00 0.00 40 1016.0
20220629091904 87 129 0.0 2.0 0.00 0.00 0.00 40 1016.0
20220629091403 87 132 0.0 5.0 0.00 0.00 0.00 39 1015.9
20220629090903 87 136 0.0 5.0 0.00 0.00 0.00 39 1015.9
20220629090404 87 150 2.0 5.0 0.00 0.00 0.00 39 1016.0
20220629085903 87 127 1.0 5.0 0.00 0.00 0.00 39 1016.0
20220629085403 87 107 1.0 8.0 0.00 0.00 0.00 39 1016.0
20220629084903 87 114 1.0 8.0 0.00 0.00 0.00 39 1016.0
20220629084403 87 143 2.0 8.0 0.00 0.00 0.00 39 1016.0
20220629083903 87 126 1.0 3.0 0.00 0.00 0.00 39 1016.2
20220629083404 87 114 1.0 3.0 0.00 0.00 0.00 38 1016.2
20220629082903 87 67 0.0 3.0 0.00 0.00 0.00 38 1016.1
20220629082403 88 101 1.0 5.0 0.00 0.00 0.00 38 1016.2
20220629081903 88 150 1.0 5.0 0.00 0.00 0.00 38 1016.2
20220629081404 88 117 1.0 3.0 0.00 0.00 0.00 38 1016.2
20220629080903 88 122 1.0 3.0 0.00 0.00 0.00 38 1016.2
20220629080403 88 131 1.0 3.0 0.00 0.00 0.00 38 1016.3
20220629075903 88 128 1.0 3.0 0.00 0.00 0.00 38 1016.3
20220629075403 88 124 0.0 3.0 0.00 0.00 0.00 38 1016.4
20220629074903 88 134 1.0 3.0 0.00 0.00 0.00 38 1016.3
20220629074404 88 119 0.0 3.0 0.00 0.00 0.00 38 1016.3
20220629073905 88 110 2.0 5.0 0.00 0.00 0.00 38 1016.4
20220629073403 88 133 2.0 8.0 0.00 0.00 0.00 39 1016.4
20220629072903 88 125 2.0 8.0 0.00 0.00 0.00 39 1016.4
20220629072403 88 88 1.0 6.0 0.00 0.00 0.00 39 1016.4
20220629071903 88 118 2.0 6.0 0.00 0.00 0.00 40 1016.5
20220629071404 88 123 1.0 6.0 0.00 0.00 0.00 40 1016.7
20220629070904 88 93 2.0 6.0 0.00 0.00 0.00 40 1016.7
20220629070403 88 146 2.0 6.0 0.00 0.00 0.00 41 1016.6
20220629065904 88 109 1.0 3.0 0.00 0.00 0.00 41 1016.5
20220629065403 88 78 1.0 3.0 0.00 0.00 0.00 42 1016.5
20220629064903 88 89 1.0 5.0 0.00 0.00 0.00 42 1016.5
20220629064404 88 119 1.0 6.0 0.00 0.00 0.00 42 1016.4
20220629063903 88 93 1.0 6.0 0.00 0.00 0.00 41 1016.4
20220629063403 88 124 1.0 5.0 0.00 0.00 0.00 41 1016.4
20220629062904 88 186 0.0 2.0 0.00 0.00 0.00 40 1016.3
20220629062404 89 194 0.0 2.0 0.00 0.00 0.00 40 1016.4
20220629061903 89 194 0.0 1.0 0.00 0.00 0.00 39 1016.5
20220629061403 89 194 0.0 1.0 0.00 0.00 0.00 39 1016.4
20220629060904 89 194 0.0 1.0 0.00 0.00 0.00 39 1016.5
20220629060404 89 194 0.0 2.0 0.00 0.00 0.00 39 1016.5
20220629055904 90 194 0.0 2.0 0.00 0.00 0.00 38 1016.5
20220629055404 90 198 0.0 0.0 0.00 0.00 0.00 37 1016.3
20220629054903 90 198 0.0 0.0 0.00 0.00 0.00 37 1016.3
20220629054403 90 198 0.0 0.0 0.00 0.00 0.00 37 1016.4
20220629053904 90 198 0.0 1.0 0.00 0.00 0.00 37 1016.4
20220629053404 90 198 0.0 1.0 0.00 0.00 0.00 37 1016.5
20220629052903 91 198 0.0 1.0 0.00 0.00 0.00 36 1016.3
20220629052403 91 198 0.0 1.0 0.00 0.00 0.00 36 1016.4
20220629051904 91 198 0.0 1.0 0.00 0.00 0.00 36 1016.3
20220629051403 91 198 0.0 1.0 0.00 0.00 0.00 35 1016.2
20220629050905 91 198 0.0 1.0 0.00 0.00 0.00 35 1016.1
20220629050403 92 198 0.0 1.0 0.00 0.00 0.00 35 1016.2
20220629045903 92 198 0.0 1.0 0.00 0.00 0.00 34 1016.0
20220629045403 92 198 0.0 0.0 0.00 0.00 0.00 34 1015.9
20220629044903 92 198 0.0 1.0 0.00 0.00 0.00 34 1015.9
20220629044404 92 198 0.0 1.0 0.00 0.00 0.00 34 1015.9
20220629043903 92 198 0.0 1.0 0.00 0.00 0.00 34 1015.8
20220629043403 92 198 0.0 1.0 0.00 0.00 0.00 34 1015.7
20220629042905 92 198 0.0 1.0 0.00 0.00 0.00 34 1015.7
20220629042403 93 198 0.0 1.0 0.00 0.00 0.00 33 1015.7
20220629041903 93 198 0.0 1.0 0.00 0.00 0.00 33 1015.5
20220629041404 93 198 0.0 2.0 0.00 0.00 0.00 33 1015.4
20220629040904 93 198 0.0 2.0 0.00 0.00 0.00 33 1015.3
20220629040403 93 198 0.0 2.0 0.00 0.00 0.00 33 1015.2
20220629035903 94 198 0.0 3.0 0.00 0.00 0.00 32 1015.1
20220629035404 94 198 0.0 5.0 0.00 0.00 0.00 32 1014.9
20220629034903 94 198 1.0 5.0 0.00 0.00 0.00 32 1014.9
20220629034404 94 188 1.0 3.0 0.00 0.00 0.00 32 1014.8
20220629033904 94 186 0.0 3.0 0.00 0.00 0.00 32 1014.6
20220629033403 94 186 1.0 7.0 0.00 0.00 0.00 32 1014.7
20220629032903 95 243 2.0 7.0 0.00 0.00 0.00 31 1014.6
20220629032403 95 218 1.0 5.0 0.00 0.00 0.00 31 1014.6
20220629031903 95 230 2.0 7.0 0.00 0.00 0.00 30 1014.5
20220629031403 96 173 2.0 7.0 0.00 0.00 0.00 29 1014.5
20220629030903 96 116 1.0 3.0 0.00 0.00 0.00 27 1014.4
20220629030404 96 106 1.0 3.0 0.00 0.00 0.00 27 1014.2
20220629025903 96 93 1.0 5.0 0.00 0.00 0.00 27 1014.1
20220629025403 96 85 1.0 5.0 0.00 0.00 0.00 27 1014.1
20220629024904 96 73 1.0 3.0 0.00 0.00 0.00 27 1014.1
20220629024404 96 126 1.0 3.0 0.00 0.00 0.00 26 1014.0
20220629023904 96 116 1.0 3.0 0.00 0.00 0.00 26 1013.9
20220629023403 96 162 2.0 6.0 0.00 0.00 0.00 26 1014.0
20220629022904 96 138 1.0 6.0 0.00 0.00 0.00 26 1013.9
20220629022404 97 95 1.0 6.0 0.00 0.00 0.00 26 1013.8
20220629021903 97 138 2.0 5.0 0.00 0.00 0.00 26 1013.9
20220629021403 97 135 2.0 6.0 0.00 0.00 0.00 25 1013.8
20220629020903 97 120 1.0 6.0 0.00 0.00 0.00 25 1013.8
20220629020403 97 78 1.0 5.0 0.00 0.00 0.00 25 1013.6
20220629015903 97 147 1.0 5.0 0.00 0.00 0.00 25 1013.6
20220629015403 98 90 1.0 3.0 0.00 0.00 0.00 25 1013.6
20220629014903 98 68 1.0 9.0 0.00 0.00 0.00 25 1013.6
20220629014403 98 156 2.0 9.0 0.00 0.00 0.00 25 1013.4
20220629013903 98 138 2.0 8.0 0.00 0.00 0.00 25 1013.3
20220629013403 98 83 2.0 8.0 0.00 0.00 0.00 25 1013.3
20220629012903 98 172 2.0 5.0 0.00 0.00 0.00 25 1013.3
20220629012403 98 113 1.0 3.0 0.00 0.00 0.00 25 1013.2
20220629011903 98 125 1.0 6.0 0.00 0.00 0.00 25 1013.3
20220629011403 98 112 2.0 6.0 0.00 0.00 0.00 25 1013.2
20220629010903 98 155 3.0 6.0 0.00 0.00 0.00 25 1013.0
20220629010404 99 95 1.0 3.0 0.00 0.00 0.00 24 1012.9
20220629005904 99 100 1.0 3.0 0.00 0.00 0.00 24 1012.9
20220629005404 99 96 1.0 5.0 0.00 0.00 0.00 24 1012.9
20220629004904 100 24 1.0 5.0 0.00 0.00 0.00 24 1013.0
20220629004403 100 286 1.0 2.0 0.00 0.00 0.00 24 1013.0
20220629003904 100 287 1.0 2.0 0.00 0.00 0.00 23 1013.1
20220629003403 100 287 1.0 5.0 0.00 0.00 0.00 23 1013.2
20220629002904 100 266 1.0 5.0 0.00 0.00 0.00 23 1013.2
20220629002404 100 235 2.0 3.0 0.00 0.00 0.00 23 1013.2
20220629001903 100 270 1.0 5.0 0.00 0.00 0.00 23 1013.3
20220629001403 100 11 1.0 5.0 0.00 0.00 0.00 23 1013.3
20220629000903 101 13 1.0 5.0 0.00 0.00 0.00 23 1013.5
20220629000404 101 18 2.0 3.0 0.00 0.00 0.00 23 1013.7
20220628235904 101 16 0.0 7.0 0.00 0.00 0.00 23 1013.7
20220628235403 101 13 1.0 7.0 0.00 0.00 0.00 23 1013.9
20220628234904 101 22 2.0 7.0 0.00 0.00 0.00 23 1013.9
20220628234403 101 6 1.0 3.0 0.00 0.00 0.00 23 1013.9
20220628233904 101 13 0.0 5.0 0.00 0.00 0.00 23 1013.9
20220628233403 101 19 1.0 5.0 0.00 0.00 0.00 23 1013.9
20220628232904 101 2 1.0 8.0 0.00 0.00 0.00 23 1014.0
20220628232403 101 357 3.0 8.0 0.00 0.00 0.00 23 1014.0
20220628231903 101 15 2.0 3.0 0.00 0.00 0.00 23 1014.1
20220628231404 101 127 0.0 3.0 0.00 0.00 0.00 23 1014.2
20220628230903 101 128 1.0 3.0 0.00 0.00 0.00 24 1014.2
20220628230404 101 100 2.0 3.0 0.00 0.00 0.00 23 1014.3
20220628225904 101 46 2.0 6.0 0.00 0.00 0.00 24 1014.3
20220628225404 101 104 1.0 6.0 0.00 0.00 0.00 24 1014.3
20220628224903 101 136 1.0 6.0 0.00 0.00 0.00 23 1014.3
20220628224403 101 135 2.0 6.0 0.00 0.00 0.00 25 1014.4
20220628223903 100 117 3.0 5.0 0.00 0.00 0.00 24 1014.4
20220628223404 100 42 2.0 5.0 0.00 0.00 0.00 24 1014.6
20220628222904 100 64 1.0 6.0 0.00 0.00 0.00 26 1014.6
20220628222403 100 22 3.0 6.0 0.00 0.00 0.00 25 1014.8
20220628221903 100 31 2.0 5.0 0.00 0.00 0.00 24 1014.9
20220628221404 101 184 2.0 5.0 0.00 0.00 0.00 24 1015.0